Terminal Aerodrome Forecast
Issued by NWS

Home | Current Version | Previous Version | Text Only | Print | Product List | Glossary On
Versions: 1 2 3 4 5 6 7 8 9 10 11 12 13 14 15 16 17 18 19 20 21 22 23 24 25 26 27 28 29 30 31 32 33 34 35 36 37 38 39 40 41 42 43 44 45 46 47 48 49 50
000
FTUS41 KCTP 281739
TAFUNV
TAF
KUNV 281739Z 2818/2918 32010G16KT P6SM -SHSN SCT025 OVC035
      TEMPO 2818/2821 3SM -SN BKN025 OVC035
     FM282100 32014G22KT P6SM -SHSN BKN035
     FM290400 32011G18KT P6SM SCT035
     FM291200 30007KT P6SM SCT220=

USA.gov is the U.S. government's official web portal to all federal, state and local government web resources and services.